Location: Unspecified
(43.4354°N, 0.0000°E)
Time: 23:54:42
(UTC+00:00)

Vanguard 2 Rocket - Pass Details

Date: 21 June 2019
Orbit: 554 x 3326 km, 32.9° (Epoch: 19 July)

Event Time Altitude Azimuth Distance (km) Brightness Sun altitude
Rises 23:38:00 0° 255° (WSW) 4,566 10.4 -22.9°
Reaches altitude 10° 23:40:36 10° 250° (WSW) 3,884 10.0 -22.9°
Maximum altitude 23:51:12 54° 177° (S) 2,729 8.8 -23.1°
Drops below altitude 10° 00:08:28 10° 107° (ESE) 6,080 10.9 -23.1°
Sets 00:13:46 0° 104° (ESE) 7,257 11.4 -23.1°
